Location: Star Hoppers Observatory
(42.7905°N, 83.6127°W)
Time: 03:28:06
(UTC-04:00)

Amateur Radio Satellites - All Passes

Search period start: 23 August 2014 02:58
Search period end: 24 August 2014 02:58
Location: Star Hoppers Observatory, 42.7905°N, 83.6127°W

Satellite Date Start Highest point End Downlink Frequencies (MHz)
Time Altitude Azimuth
ITAMSAT 1 23 Aug 03:09:10 03:13:43 31° 96° (E) 03:18:15 435.822 SSB
Gurwin Techsat 1B 23 Aug 03:15:55 03:19:11 16° 90° (E) 03:22:27 435.225 FM
Saudisat 1A 23 Aug 03:20:01 03:23:15 20° 319° (NW) 03:26:31 436.775 MHz
Uribyol 2 23 Aug 03:21:09 03:26:04 42° 99° (E) 03:30:58 436.500 FM
Oscar 16 23 Aug 03:29:28 03:34:41 76° 286° (WNW) 03:39:51 437.025 USB, Beacon 2401.1428
AO-27 23 Aug 03:35:30 03:40:36 55° 101° (E) 03:45:40 436.795 MHz FM
OPAL 23 Aug 03:35:39 03:38:43 17° 57° (ENE) 03:41:49 ?
Sapphire 23 Aug 03:44:22 03:49:00 28° 47° (NE) 03:53:36 437.095 MHz 1200 baud AX-25 AFSK
JAS-1B 23 Aug 04:01:53 04:09:23 71° 102° (ESE) 04:15:37 435.800 - 435.900 CW/SSB
TMSAT-1 23 Aug 04:11:55 04:16:52 39° 98° (E) 04:21:47 436.925 FM
PCSat 23 Aug 04:14:29 04:19:45 47° 54° (NE) 04:24:58 145.825 MHz
AO-7 23 Aug 04:17:17 04:21:15 14° 87° (E) 04:25:12 29.400 - 29.500 MHz
KITSAT 1 23 Aug 04:29:16 04:35:45 26° 325° (NW) 04:42:15 435.175 FM
AO-Echo 23 Aug 04:32:15 04:36:38 38° 291° (WNW) 04:40:57 ?
Oscar 19 23 Aug 04:36:22 04:40:13 21° 297° (WNW) 04:44:04 437.125 CW, 437.150 USB
ITAMSAT 1 23 Aug 04:48:34 04:53:12 34° 293° (WNW) 04:57:50 435.822 SSB
Gurwin Techsat 1B 23 Aug 04:54:21 04:59:37 65° 287° (WNW) 05:04:51 435.225 FM
Uribyol 2 23 Aug 05:01:06 05:05:19 26° 296° (WNW) 05:09:32 436.500 FM
Oscar 16 23 Aug 05:11:53 05:13:08 11° 304° (NW) 05:14:23 437.025 USB, Beacon 2401.1428
OPAL 23 Aug 05:12:01 05:17:01 71° 255° (WSW) 05:22:07 ?
Uosat F 23 Aug 05:14:57 05:19:18 29° 96° (E) 05:23:38 435.120 FM
AO-27 23 Aug 05:15:58 05:19:42 21° 298° (WNW) 05:23:27 436.795 MHz FM
Sapphire 23 Aug 05:27:26 05:32:41 50° 246° (WSW) 05:37:53 437.095 MHz 1200 baud AX-25 AFSK
SO-50 23 Aug 05:39:04 05:41:49 16° 110° (ESE) 05:44:37 436.795 FM
TMSAT-1 23 Aug 05:52:10 05:56:37 28° 295° (WNW) 06:01:04 436.925 FM
JAS-1B 23 Aug 05:53:30 05:59:04 23° 306° (NW) 06:04:01 435.800 - 435.900 CW/SSB
PCSat 23 Aug 05:58:27 06:02:53 26° 252° (WSW) 06:07:18 145.825 MHz
AO-7 23 Aug 06:07:03 06:15:23 75° 106° (ESE) 06:23:39 29.400 - 29.500 MHz
KITSAT 1 23 Aug 06:31:13 06:34:40 13° 355° (N) 06:38:07 435.175 FM
STRAND 1 23 Aug 06:42:27 06:46:58 33° 67° (ENE) 06:51:30 ?
JAS-2 23 Aug 06:53:30 06:57:47 26° 95° (E) 07:02:09 435.800 - 435.900 CW/SSB, 435.910 FM
Uosat F 23 Aug 06:53:37 06:58:05 34° 293° (WNW) 07:02:33 435.120 FM
Hamsat 23 Aug 07:08:26 07:12:35 40° 98° (E) 07:16:41 145.90 MHz
SO-50 23 Aug 07:17:28 07:21:53 59° 307° (NW) 07:26:26 436.795 FM
AO-7 23 Aug 08:00:48 08:07:25 28° 306° (NW) 08:14:02 29.400 - 29.500 MHz
STRAND 1 23 Aug 08:21:37 08:26:08 31° 264° (W) 08:30:40 ?
UOSAT-12 23 Aug 08:23:41 08:28:11 56° 119° (ESE) 08:32:48 437.025 FM, 437.400 FM
Saudisat 1A 23 Aug 08:27:14 08:28:51 12° 33° (NNE) 08:30:28 436.775 MHz
KITSAT 1 23 Aug 08:28:34 08:34:03 19° 26° (NNE) 08:39:30 435.175 FM
JAS-2 23 Aug 08:38:17 08:43:02 38° 292° (WNW) 08:47:53 435.800 - 435.900 CW/SSB, 435.910 FM
Hamsat 23 Aug 08:45:06 08:48:15 20° 294° (WNW) 08:51:24 145.90 MHz
RS-15 23 Aug 09:01:00 09:10:47 38° 108° (ESE) 09:20:24 29.354 - 29.394 USB, Beacon 29.352 USB
SO-50 23 Aug 09:01:45 09:03:28 12° 329° (NNW) 09:05:11 436.795 FM
SO-67 23 Aug 09:04:45 09:08:10 54° 285° (WNW) 09:11:32 435.3500 MHz FM
HO-68 23 Aug 09:17:41 09:22:11 17° 90° (E) 09:26:39 435.675 MHz FM
UKube-1 23 Aug 09:54:38 09:56:40 13° 91° (E) 09:58:42 145.840 MHz, 145.915 MHz
Saudisat 1A 23 Aug 10:04:57 10:09:20 62° 54° (NE) 10:13:42 436.775 MHz
UOSAT-12 23 Aug 10:04:59 10:08:41 23° 318° (NW) 10:12:26 437.025 FM, 437.400 FM
Oscar 11 23 Aug 10:09:49 10:11:34 12° 90° (E) 10:13:19 145.825 FM, Beacon 2401.500 USB
KITSAT 1 23 Aug 10:23:30 10:31:27 56° 51° (NE) 10:39:20 435.175 FM
HO-68 23 Aug 11:03:31 11:10:43 86° 288° (WNW) 11:17:52 435.675 MHz FM
RS-15 23 Aug 11:11:32 11:22:30 65° 310° (NW) 11:33:24 29.354 - 29.394 USB, Beacon 29.352 USB
UKube-1 23 Aug 11:28:58 11:33:15 58° 287° (WNW) 11:37:30 145.840 MHz, 145.915 MHz
Oscar 11 23 Aug 11:43:50 11:48:10 64° 286° (WNW) 11:52:29 145.825 FM, Beacon 2401.500 USB
Saudisat 1A 23 Aug 11:45:56 11:48:25 15° 250° (WSW) 11:50:54 436.775 MHz
FUNcube-1 23 Aug 11:46:34 11:50:56 54° 100° (E) 11:55:22 145.950 - 145.970 MHz USB
KITSAT 1 23 Aug 12:19:22 12:26:31 36° 252° (WSW) 12:33:38 435.175 FM
Oscar 19 23 Aug 12:38:45 12:40:28 12° 57° (ENE) 12:42:10 437.125 CW, 437.150 USB
HO-68 23 Aug 12:52:50 12:57:26 19° 307° (NW) 13:02:02 435.675 MHz FM
JAS-1B 23 Aug 12:57:56 13:04:08 20° 52° (NE) 13:10:00 435.800 - 435.900 CW/SSB
Oscar 16 23 Aug 13:09:30 13:13:27 23° 63° (ENE) 13:17:26 437.025 USB, Beacon 2401.1428
AO-27 23 Aug 13:18:41 13:20:55 13° 58° (ENE) 13:23:09 436.795 MHz FM
FUNcube-1 23 Aug 13:24:11 13:26:55 16° 296° (WNW) 13:29:41 145.950 - 145.970 MHz USB
RS-15 23 Aug 13:28:39 13:37:30 27° 340° (NNW) 13:46:26 29.354 - 29.394 USB, Beacon 29.352 USB
AO-Echo 23 Aug 14:07:17 14:11:55 35° 68° (ENE) 14:16:26 ?
SO-50 23 Aug 14:08:12 14:12:06 24° 43° (NE) 14:16:01 436.795 FM
Oscar 19 23 Aug 14:13:48 14:18:57 82° 75° (ENE) 14:24:09 437.125 CW, 437.150 USB
ITAMSAT 1 23 Aug 14:27:52 14:32:51 51° 71° (ENE) 14:37:51 435.822 SSB
Gurwin Techsat 1B 23 Aug 14:37:25 14:41:55 29° 65° (ENE) 14:46:25 435.225 FM
ISS 23 Aug 14:38:36 14:41:54 74° 144° (SE) 14:45:13 145.800 FM
Uribyol 2 23 Aug 14:39:49 14:44:56 69° 73° (ENE) 14:50:04 436.500 FM
JAS-1B 23 Aug 14:43:21 14:53:11 70° 70° (ENE) 15:02:21 435.800 - 435.900 CW/SSB
Oscar 16 23 Aug 14:47:32 14:52:29 48° 261° (W) 14:57:29 437.025 USB, Beacon 2401.1428
AO-27 23 Aug 14:54:28 14:59:40 89° 75° (ENE) 15:04:53 436.795 MHz FM
UOSAT-12 23 Aug 15:14:00 15:16:07 13° 32° (NNE) 15:18:13 437.025 FM, 437.400 FM
AO-7 23 Aug 15:16:33 15:23:01 26° 53° (NE) 15:29:28 29.400 - 29.500 MHz
TMSAT-1 23 Aug 15:33:24 15:38:38 66° 73° (ENE) 15:43:53 436.925 FM
RS-15 23 Aug 15:46:12 15:54:50 25° 16° (NNE) 16:03:35 29.354 - 29.394 USB, Beacon 29.352 USB
AO-Echo 23 Aug 15:46:14 15:50:41 29° 264° (W) 15:55:03 ?
SO-50 23 Aug 15:48:17 15:52:57 54° 241° (WSW) 15:57:40 436.795 FM
MaSat-1 23 Aug 15:54:42 15:59:26 71° 113° (ESE) 16:04:35 437.345 MHz
Oscar 19 23 Aug 15:56:53 15:58:55 12° 272° (W) 16:00:58 437.125 CW, 437.150 USB
ITAMSAT 1 23 Aug 16:08:49 16:12:37 21° 267° (W) 16:16:27 435.822 SSB
ISS 23 Aug 16:16:05 16:18:54 25° 343° (NNW) 16:21:44 145.800 FM
Gurwin Techsat 1B 23 Aug 16:16:48 16:21:43 39° 263° (W) 16:26:41 435.225 FM
Uribyol 2 23 Aug 16:22:03 16:24:54 15° 270° (W) 16:27:46 436.500 FM
Uosat F 23 Aug 16:28:53 16:33:38 45° 70° (ENE) 16:38:24 435.120 FM
JAS-1B 23 Aug 16:35:31 16:44:03 33° 267° (W) 16:52:15 435.800 - 435.900 CW/SSB
AO-27 23 Aug 16:38:29 16:39:52 11° 272° (W) 16:41:15 436.795 MHz FM
UOSAT-12 23 Aug 16:52:33 16:57:15 61° 53° (NE) 17:01:52 437.025 FM, 437.400 FM
AO-7 23 Aug 17:06:35 17:14:57 81° 253° (WSW) 17:23:20 29.400 - 29.500 MHz
JAS-2 23 Aug 17:08:28 17:11:56 16° 60° (ENE) 17:15:13 435.800 - 435.900 CW/SSB, 435.910 FM
TMSAT-1 23 Aug 17:15:48 17:19:01 16° 270° (W) 17:22:16 436.925 FM
OPAL 23 Aug 17:21:24 17:25:54 29° 97° (E) 17:30:21 ?
MaSat-1 23 Aug 17:33:33 17:37:07 19° 313° (NW) 17:40:50 437.345 MHz
ISS 23 Aug 17:54:06 17:56:27 18° 3° (N) 17:58:49 145.800 FM
RS-15 23 Aug 17:59:30 18:10:19 56° 47° (NE) 18:21:30 29.354 - 29.394 USB, Beacon 29.352 USB
Hamsat 23 Aug 18:02:39 18:06:28 32° 70° (ENE) 18:10:19 145.90 MHz
Uosat F 23 Aug 18:08:45 18:12:37 22° 266° (W) 18:16:29 435.120 FM
Sapphire 23 Aug 18:28:33 18:32:09 18° 105° (ESE) 18:35:47 437.095 MHz 1200 baud AX-25 AFSK
UOSAT-12 23 Aug 18:33:53 18:36:55 17° 250° (WSW) 18:39:55 437.025 FM, 437.400 FM
JAS-2 23 Aug 18:49:46 18:56:25 89° 255° (WSW) 19:02:18 435.800 - 435.900 CW/SSB, 435.910 FM
PCSat 23 Aug 18:57:20 19:02:12 36° 111° (ESE) 19:07:06 145.825 MHz
OPAL 23 Aug 19:00:01 19:04:49 38° 294° (WNW) 19:09:37 ?
AO-7 23 Aug 19:04:16 19:08:56 16° 272° (W) 19:13:39 29.400 - 29.500 MHz
ISS 23 Aug 19:30:49 19:33:54 34° 23° (NNE) 19:36:59 145.800 FM
SO-67 23 Aug 19:38:19 19:41:41 50° 74° (ENE) 19:45:04 435.3500 MHz FM
Hamsat 23 Aug 19:39:03 19:42:28 23° 266° (W) 19:45:56 145.90 MHz
HO-68 23 Aug 19:48:43 19:52:52 17° 51° (NE) 19:57:02 435.675 MHz FM
Sapphire 23 Aug 20:09:40 20:15:01 65° 303° (WNW) 20:20:26 437.095 MHz 1200 baud AX-25 AFSK
RS-15 23 Aug 20:12:11 20:22:32 48° 249° (WSW) 20:33:17 29.354 - 29.394 USB, Beacon 29.352 USB
STRAND 1 23 Aug 20:30:35 20:35:42 82° 104° (ESE) 20:40:48 ?
JAS-2 23 Aug 20:39:01 20:42:02 14° 270° (W) 20:44:56 435.800 - 435.900 CW/SSB, 435.910 FM
PCSat 23 Aug 20:40:37 20:45:35 36° 309° (NW) 20:50:36 145.825 MHz
UKube-1 23 Aug 20:51:20 20:53:38 14° 62° (ENE) 20:55:56 145.840 MHz, 145.915 MHz
Oscar 11 23 Aug 21:06:33 21:08:06 12° 61° (ENE) 21:09:40 145.825 FM, Beacon 2401.500 USB
ISS 23 Aug 21:07:31 21:10:40 39° 221° (SW) 21:13:47 145.800 FM
HO-68 23 Aug 21:32:20 21:39:28 78° 71° (ENE) 21:46:37 435.675 MHz FM
Sapphire 23 Aug 21:56:48 21:59:33 14° 324° (NW) 22:02:18 437.095 MHz 1200 baud AX-25 AFSK
STRAND 1 23 Aug 22:11:40 22:14:12 14° 301° (WNW) 22:16:44 ?
UKube-1 23 Aug 22:25:03 22:29:21 61° 258° (WSW) 22:33:40 145.840 MHz, 145.915 MHz
Oscar 11 23 Aug 22:39:22 22:43:41 74° 258° (WSW) 22:48:02 145.825 FM, Beacon 2401.500 USB
FUNcube-1 23 Aug 22:44:04 22:48:01 45° 72° (ENE) 22:52:02 145.950 - 145.970 MHz USB
HO-68 23 Aug 23:22:54 23:27:52 20° 269° (W) 23:32:52 435.675 MHz FM
MaSat-1 24 Aug 00:12:25 00:16:20 23° 49° (NE) 00:19:55 437.345 MHz
Saudisat 1A 24 Aug 00:14:41 00:16:38 13° 109° (ESE) 00:18:35 436.775 MHz
FUNcube-1 24 Aug 00:22:16 00:24:42 15° 269° (W) 00:27:09 145.950 - 145.970 MHz USB
KITSAT 1 24 Aug 00:53:26 01:00:21 33° 107° (ESE) 01:07:18 435.175 FM
MaSat-1 24 Aug 01:49:08 01:53:43 45° 251° (WSW) 01:57:44 437.345 MHz
Saudisat 1A 24 Aug 01:51:14 01:55:38 72° 305° (NW) 02:00:04 436.775 MHz
Oscar 10/S400 24 Aug 02:19:54 21:34:15 54° 161° (SSE) 23:42:18 145.825 - 145.975 CW/USB, Beacon 145.810 USB
Oscar 19 24 Aug 02:25:08 02:29:32 27° 95° (E) 02:33:55 437.125 CW, 437.150 USB
JAS-1B 24 Aug 02:32:41 02:36:28 15° 83° (E) 02:39:58 435.800 - 435.900 CW/SSB
ITAMSAT 1 24 Aug 02:41:06 02:44:22 17° 91° (E) 02:47:37 435.822 SSB
